Vertical_Velocity
13 1 -1 -2 -2 -1 10 -6 0 -6 -6 -3 -14 -1 -1 -2 1 14 6 5 2 2 2 1 7 10 10 8 4 6 2 1 2 2 2 3 2 2 2 2 1 1 1 1
12 4 -3 -4 2 -1 1 0 0 -0 -9 6 -0 6 -10 5 -4 -11 13 8 10 12 5 -0 1 3 9 6 8 -3 5 -1 2 3 1 2 3 3 3 2 2 2 0 -0
0 1 -2 0 2 1 -1 -0 3 2 4 2 -4 1 4 -5 3 4 -20 8 1 4 0 1 5 4 8 6 4 5 -12 -7 3 2 3 1 2 3 3 2 2 1 1 2
-2 -4 2 5 -1 -2 -1 1 -1 1 -2 -1 7 12 -1 -1 6 1 4 -7 -1 2 2 2 1 5 3 3 -0 1 -17 8 2 1 2 3 3 2 2 1 2 3 2 -1
-1 -0 -8 -2 2 0 -3 -2 3 6 4 3 -5 2 0 2 5 5 2 9 4 -7 -3 5 6 -6 -1 -11 -37 13 5 1 3 2 -3 -2 -2 -0 -1 -1 -0 1 2 1
-2 0 -1 7 3 -0 1 -4 4 2 2 1 2 4 2 5 5 4 4 8 8 2 -1 -15 -17 -6 -12 -6 14 2 -3 -4 7 2 -2 -5 0 -1 -4 -3 -3 -3 -2 -0
1 -1 -7 -3 1 2 5 -9 -1 1 -3 2 2 3 15 7 4 3 1 -1 -3 -3 -5 -10 -16 -7 5 3 2 -3 5 2 4 -0 -0 -3 3 -1 -3 -4 -2 1 0 -2
2 1 -2 -0 -0 0 -1 -1 -2 -4 -5 -0 2 3 13 10 8 10 4 2 1 5 4 5 5 4 -2 -2 -7 4 4 -5 -1 2 4 3 1 6 3 3 -1 2 1 1
5 6 3 -3 -1 -0 -1 -1 -1 -1 3 -6 12 14 11 7 10 14 7 2 5 2 2 2 3 0 2 -1 1 -3 5 -0 -3 -1 0 2 -1 1 -1 -0 -1 -0 -1 -0
3 5 -1 -1 -2 -3 0 1 -2 -2 -1 -3 7 1 2 -1 3 0 -5 -5 4 3 2 2 2 1 -1 -1 2 1 -0 2 1 3 -1 -0 -2 -2 -2 -0 2 1 -1 -2
18 6 4 4 0 -2 0 -1 -0 7 8 5 5 7 3 2 3 2 -0 -3 -6 2 -0 0 -0 -0 -0 -0 2 3 1 4 2 -3 -3 0 -3 -2 -2 -3 -4 1 -1 1
7 -0 3 2 1 2 3 4 6 1 -0 -1 -0 -3 -1 1 -1 1 -4 1 1 1 4 2 -0 -1 -0 0 2 2 4 1 -1 -2 -5 -6 -3 -2 -4 -0 -1 -1 -0 -1
3 1 2 2 2 1 4 3 2 0 -0 1 -3 -2 -1 -3 -6 -2 -2 -7 -1 -3 0 -1 0 -1 -1 -1 0 -1 3 4 3 -0 1 1 1 1 1 1 -2 -2 -3 -2
7 5 3 1 3 2 2 1 1 1 0 1 -1 -3 -2 -1 -1 0 0 -2 -1 1 1 -1 3 -3 -3 -1 -0 -2 -2 2 -1 -1 -0 -1 -1 -2 -1 -1 -1 -3 -2 -3
4 3 2 1 0 0 -1 0 0 1 0 -1 -1 -1 -2 -2 -1 1 1 0 -1 -0 0 -1 -0 -1 -0 -0 -1 -3 -0 2 -2 -3 -3 -4 -4 -3 -4 -5 -4 -2 0 -1
1 1 0 0 -0 1 -1 -2 -2 -1 -0 1 0 0 0 -0 0 -1 -0 -1 -2 -0 1 -2 -2 -2 0 -1 2 -0 1 2 -0 -2 -2 -3 -2 -2 1 -0 -0 -1 -2 -1
-1 -0 0 1 1 1 3 1 -0 -1 -2 -2 -0 -0 1 1 -0 -2 -1 -1 -1 -2 -2 -2 -2 -1 -1 -3 -2 3 1 -2 -3 -2 -1 -0 0 1 -1 -1 -1 0 -1 -3
-0 -0 -1 -1 -3 -1 0 -1 -0 -0 0 -0 -1 -1 -1 1 -1 1 0 0 -0 1 1 3 2 -0 -0 3 6 1 -1 -0 0 0 -1 -2 -1 1 -1 -1 -1 -1 -2 -1
0 0 1 2 1 -0 -0 0 0 -0 -0 -1 -0 -0 0 -0 -0 1 1 1 1 0 -2 1 2 4 4 2 -2 -2 -1 -2 -2 -2 -2 -1 -2 -1 -2 -1 -0 -2 -2 -2
1 1 0 0 1 1 0 0 1 0 0 -0 1 1 0 1 1 1 -0 0 -0 1 1 1 1 1 -1 -4 -4 -4 -3 -2 -2 -1 -2 -2 -2 -2 -2 -3 -1 -2 -1 -0
-0 -0 -0 -1 -1 -0 0 0 0 0 0 1 2 1 -0 1 1 1 0 0 1 1 1 0 0 -0 0 -1 -2 -2 -1 -0 -0 -1 -2 -2 -1 0 1 -1 -1 -2 1 -0
-0 1 1 2 2 1 2 2 2 2 2 1 1 0 1 2 2 1 1 1 1 1 1 0 0 1 -1 -2 -3 -1 -1 -1 -1 -2 -0 -0 -0 -2 -1 -1 0 -0 0 0
1 1 0 -0 -0 -1 -1 -1 -1 -1 -1 -0 -0 0 1 0 0 0 1 1 0 -0 -2 -2 -1 -2 -2 -2 -1 -1 1 -1 0 -0 -0 -0 -1 -1 -0 -0 0 -0 0 1
-1 -1 -1 -1 -1 -1 -1 -0 -0 -1 -1 -1 -1 -1 -0 -0 0 -1 -1 -1 -1 -2 -2 -1 -1 -1 0 0 0 -0 -0 -1 -0 -1 -1 -0 -0 0 0 1 1 1 1 0
-0 0 0 1 1 1 1 0 1 1 1 1 1 0 -0 -1 -1 -1 -1 -1 -0 -0 0 0 -0 -0 -0 -0 -0 -0 0 0 1 0 1 1 1 1 1 1 1 -0 -0 0
1 1 1 2 2 1 1 1 1 0 0 -0 -0 -1 -0 -0 0 0 0 0 0 0 -0 -1 -1 -1 -1 -1 -1 -1 -1 -1 -1 -0 -0 -0 0 0 -0 -0 -0 0 0 1
0 0 0 0 0 -0 0 0 -0 -0 0 1 0 -0 0 -0 -0 -1 -1 -1 -2 -2 -2 -1 -1 -1 -1 -1 -1 -1 -1 -0 0 0 0 0 0 1 1 1 1 1 0 0
Height
2991 2988 2989 2990 2991 2993 2993 2993 2992 2986 2985 2984 2982 2981 2979 2980 2978 2975 2977 2978 2978 2979 2983 2988 2993 2998 3002 3007 3014 3018 3021 3024 3026 3028 3029 3031 3032 3034 3036 3037 3039 3040 3041 3043
2987 2985 2986 2986 2988 2988 2988 2987 2985 2982 2979 2982 2981 2978 2979 2978 2978 2978 2976 2978 2979 2980 2983 2987 2991 2996 3000 3006 3010 3013 3017 3020 3021 3024 3025 3027 3029 3031 3032 3033 3035 3036 3037 3037
2983 2983 2984 2984 2984 2985 2986 2985 2984 2980 2979 2977 2976 2975 2977 2977 2979 2980 2981 2978 2979 2982 2984 2986 2989 2993 2998 3000 3003 3008 3011 3016 3019 3019 3020 3022 3024 3026 3027 3028 3029 3030 3031 3032
2983 2982 2983 2980 2981 2982 2982 2982 2981 2977 2974 2974 2974 2970 2972 2974 2976 2978 2979 2981 2981 2981 2984 2986 2988 2990 2993 2996 2999 3001 3007 3012 3012 3014 3015 3017 3018 3019 3021 3022 3023 3023 3024 3024
2979 2981 2980 2978 2978 2979 2978 2979 2977 2975 2973 2973 2972 2971 2972 2973 2972 2974 2975 2977 2978 2981 2983 2985 2987 2990 2992 2993 2999 3001 3002 3005 3007 3008 3010 3011 3012 3013 3014 3015 3015 3015 3016 3016
2981 2982 2981 2977 2976 2976 2977 2976 2974 2973 2972 2971 2971 2971 2970 2971 2971 2972 2973 2974 2975 2977 2980 2984 2987 2989 2991 2996 2997 2998 3000 3001 3002 3004 3005 3006 3007 3007 3008 3008 3009 3009 3009 3009
2980 2981 2977 2973 2973 2973 2976 2977 2971 2970 2968 2967 2967 2967 2964 2965 2969 2972 2974 2975 2977 2979 2982 2984 2985 2989 2992 2994 2993 2995 2997 2997 2998 2998 3000 3001 3001 3002 3002 3002 3001 3001 3001 3001
2977 2977 2974 2970 2970 2971 2971 2969 2968 2967 2966 2964 2964 2964 2965 2966 2967 2970 2973 2976 2978 2981 2983 2984 2986 2987 2990 2990 2991 2991 2993 2993 2995 2993 2994 2994 2995 2994 2994 2994 2994 2993 2992 2991
2974 2970 2968 2969 2969 2969 2968 2967 2967 2966 2965 2963 2962 2961 2963 2965 2968 2969 2971 2974 2977 2979 2981 2983 2984 2984 2985 2986 2987 2988 2988 2989 2989 2989 2988 2987 2987 2987 2987 2987 2986 2985 2984 2983
2968 2965 2965 2966 2967 2967 2967 2966 2965 2965 2965 2964 2965 2966 2968 2968 2969 2970 2971 2973 2976 2978 2979 2980 2981 2982 2982 2982 2983 2984 2984 2984 2983 2983 2982 2982 2982 2982 2982 2981 2980 2979 2977 2976
2964 2963 2963 2963 2965 2966 2966 2965 2965 2965 2965 2966 2967 2967 2968 2969 2969 2970 2971 2973 2976 2977 2977 2977 2978 2979 2979 2979 2979 2979 2980 2980 2979 2978 2978 2977 2977 2976 2976 2975 2974 2972 2971 2970
2962 2962 2964 2964 2964 2965 2965 2966 2965 2966 2967 2967 2967 2967 2968 2969 2969 2970 2971 2973 2975 2975 2975 2976 2976 2976 2976 2976 2975 2975 2975 2975 2974 2973 2973 2973 2973 2972 2971 2970 2968 2967 2965 2964
2961 2962 2963 2964 2964 2964 2965 2965 2965 2965 2966 2966 2967 2967 2968 2968 2968 2968 2969 2970 2971 2971 2971 2972 2971 2970 2970 2970 2970 2970 2970 2969 2968 2967 2967 2966 2965 2964 2964 2962 2961 2960 2958 2957
2962 2963 2964 2964 2965 2965 2964 2964 2964 2964 2964 2965 2965 2966 2967 2967 2967 2966 2966 2967 2967 2967 2966 2965 2965 2965 2965 2965 2965 2965 2964 2963 2962 2962 2961 2961 2960 2960 2958 2957 2955 2954 2952 2950
2962 2963 2964 2964 2964 2964 2964 2963 2963 2963 2962 2962 2962 2962 2963 2963 2963 2963 2963 2962 2962 2963 2962 2961 2961 2961 2961 2961 2961 2960 2959 2957 2956 2956 2956 2955 2955 2954 2953 2952 2950 2948 2946 2944
2962 2963 2963 2963 2962 2962 2962 2961 2960 2960 2959 2958 2958 2957 2958 2958 2958 2958 2958 2958 2958 2958 2957 2957 2957 2957 2957 2957 2956 2955 2954 2952 2951 2951 2951 2950 2949 2948 2946 2945 2943 2941 2939 2937
2961 2961 2960 2959 2958 2957 2957 2957 2957 2956 2955 2955 2954 2953 2952 2953 2953 2953 2953 2954 2954 2954 2953 2953 2953 2952 2952 2952 2952 2950 2949 2948 2947 2947 2946 2945 2944 2942 2940 2938 2936 2934 2932 2930
2958 2958 2958 2957 2956 2954 2953 2953 2953 2952 2951 2951 2950 2950 2949 2949 2949 2949 2949 2949 2949 2949 2949 2949 2949 2949 2949 2949 2948 2946 2945 2944 2943 2942 2941 2939 2938 2936 2934 2932 2930 2928 2926 2924
2953 2953 2952 2952 2951 2951 2950 2949 2948 2948 2948 2947 2947 2947 2947 2947 2947 2947 2947 2947 2947 2947 2947 2947 2947 2946 2945 2944 2943 2942 2940 2938 2937 2935 2934 2932 2931 2929 2927 2925 2923 2921 2919 2917
2950 2950 2949 2948 2948 2947 2947 2946 2945 2944 2944 2945 2945 2945 2945 2945 2945 2945 2945 2945 2945 2945 2945 2944 2942 2941 2939 2938 2936 2935 2933 2931 2930 2928 2926 2925 2923 2921 2919 2917 2915 2914 2912 2910
2947 2947 2946 2946 2945 2945 2944 2944 2944 2943 2943 2943 2943 2943 2943 2943 2943 2943 2942 2942 2941 2940 2938 2937 2935 2933 2931 2929 2928 2927 2925 2923 2921 2920 2918 2916 2915 2913 2911 2909 2908 2906 2905 2902
2945 2944 2943 2943 2943 2943 2942 2942 2942 2942 2943 2943 2942 2942 2941 2941 2940 2939 2937 2936 2934 2932 2931 2929 2927 2925 2924 2922 2921 2919 2917 2915 2914 2912 2911 2909 2907 2906 2904 2903 2901 2899 2898 2895
2943 2943 2943 2943 2943 2943 2943 2943 2943 2943 2942 2941 2940 2939 2938 2936 2934 2932 2931 2929 2927 2925 2923 2922 2920 2918 2916 2914 2913 2911 2910 2908 2907 2905 2903 2902 2900 2899 2897 2896 2894 2892 2890 2887
2942 2942 2943 2943 2943 2942 2942 2941 2940 2939 2938 2937 2935 2933 2932 2930 2928 2926 2924 2922 2920 2918 2916 2915 2913 2911 2909 2908 2906 2904 2902 2901 2899 2898 2896 2895 2893 2892 2890 2888 2886 2884 2882 2879
2943 2943 2943 2943 2942 2942 2941 2939 2938 2936 2934 2932 2931 2929 2927 2925 2923 2920 2918 2916 2914 2912 2910 2908 2906 2904 2902 2900 2899 2897 2895 2894 2892 2891 2889 2888 2886 2885 2883 2881 2878 2876 2873 2871
2943 2943 2942 2941 2940 2938 2936 2935 2933 2930 2928 2926 2924 2921 2919 2917 2915 2913 2911 2909 2907 2905 2903 2901 2899 2897 2896 2894 2892 2890 2889 2887 2886 2884 2883 2881 2879 2877 2875 2872 2870 2868 2865 2862
2940 2939 2938 2936 2935 2933 2931 2928 2926 2923 2921 2919 2916 2914 2912 2910 2908 2906 2904 2902 2900 2898 2896 2894 2892 2890 2889 2887 2885 2883 2882 2880 2879 2877 2875 2873 2870 2868 2866 2863 2861 2859 2857 2854